Home > Weather > Perth > Past weeks

Flag for Australia Past Weather in Perth, Western Australia, Australia — Yesterday and Last 2 Weeks

Now
57 °F

Clear.


Feels Like: 56 °F
Forecast: 53 / 68 °F
Wind: 7 mph from Northeast

Location: Belmont Perth Airport

Current Time: Jul 27, 2016 at 9:31:51 PM

Latest Report: Jul 27, 2016 at 8:30 PM


Visibility: 10 mi

Pressure: 30.24 "Hg

Humidity: 72%

Dew Point: 48 °F

Location of PerthLocation

Past Weather in Perth — Graph

°F

Perth Temperature Yesterday

Maximum temperature yesterday: 66 °F (at 2:00 PM)
Minimum temperature yesterday: 39 °F (at 5:00 AM)
Average temperature yesterday: 51 °F

High & Low Weather Summary for the Past Weeks

 TemperatureHumidityPressure
High72 °F (Jul 15, 1:30 PM)100% (Jul 13, 1:30 AM)30.45 "Hg (Jul 13, 1:30 AM)
Low34 °F (Jul 13, 1:30 AM)33% (Jul 15, 4:00 PM)29.74 "Hg (Jul 16, 2:46 PM)
Average54 °F71%30.13 "Hg
* Reported Jul 12 8:00 PM — Jul 27 8:00 PM, Perth, Weather by CustomWeather, © 2016

Note: Actual official high and low records may vary slightly from our data, if they occured in-between our weather recording intervals... More about our weather records

Advertising

Perth Weather History for the Previous 24 Hours

Scroll right to see more
 ConditionsComfort  
Time TempWeatherWind HumidityBarometerVisibility
8:00 PM
Wed, Jul 27
57 °FClear.7 mph72%30.24 "Hg10 mi
7:30 PM57 °FClear.6 mph72%30.21 "Hg10 mi
7:00 PM57 °FClear.8 mph72%30.21 "Hg10 mi
6:30 PM57 °FClear.5 mph77%30.21 "Hg10 mi
6:00 PM59 °FClear.6 mph72%30.21 "Hg10 mi
5:30 PM59 °FClear.7 mph72%30.21 "Hg10 mi
5:00 PM61 °FClear.8 mph63%30.21 "Hg10 mi
4:30 PM63 °FSunny.9 mph56%30.21 "Hg10 mi
4:00 PM63 °FSunny.8 mph56%30.21 "Hg10 mi
3:30 PM64 °FSunny.8 mph52%30.21 "Hg10 mi
3:00 PM64 °FSunny.8 mph52%30.21 "Hg10 mi
2:30 PM66 °FSunny.10 mph46%30.18 "Hg10 mi
2:00 PM64 °FSunny.12 mph46%30.21 "Hg10 mi
1:30 PM66 °FSunny.12 mph46%30.21 "Hg10 mi
1:00 PM64 °FSunny.9 mph49%30.24 "Hg10 mi
12:30 PM64 °FSunny.13 mph52%30.24 "Hg10 mi
12:00 PM64 °FSunny.10 mph52%30.27 "Hg10 mi
11:30 AM63 °FSunny.13 mph56%30.27 "Hg10 mi
11:00 AM61 °FSunny.8 mph63%30.30 "Hg10 mi
10:30 AM57 °FSunny.10 mph67%30.30 "Hg10 mi
10:00 AM55 °FSunny.10 mph72%30.33 "Hg10 mi
9:30 AM52 °FSunny.8 mph77%30.33 "Hg10 mi
9:00 AM50 °FSunny.8 mph82%30.30 "Hg10 mi
8:30 AM48 °FSunny.8 mph87%30.30 "Hg10 mi
8:00 AM46 °FSunny.10 mph87%30.33 "Hg10 mi
7:30 AM45 °FSunny.10 mph93%30.33 "Hg10 mi
7:00 AM45 °FSunny.9 mph93%30.33 "Hg10 mi
6:30 AM45 °FSunny.7 mph93%30.33 "Hg10 mi
6:00 AM45 °FClear.5 mph93%30.33 "Hg10 mi
5:30 AM45 °FClear.5 mph93%30.33 "Hg10 mi
5:00 AM46 °FClear.6 mph87%30.33 "Hg10 mi
4:30 AM46 °FClear.6 mph93%30.30 "Hg10 mi
4:00 AM46 °FClear.7 mph93%30.33 "Hg10 mi
3:30 AM46 °FClear.7 mph93%30.33 "Hg10 mi
3:00 AM46 °FClear.5 mph93%30.33 "Hg10 mi
2:30 AM46 °FClear.3 mph93%30.33 "Hg10 mi
2:00 AM43 °FClear.3 mph93%30.33 "Hg10 mi
1:30 AM43 °FClear.5 mph93%30.33 "Hg10 mi
1:00 AM45 °FClear.3 mph93%30.33 "Hg10 mi
12:30 AM45 °FClear.3 mph93%30.33 "Hg10 mi
12:00 AM45 °FClear.2 mph93%30.33 "Hg10 mi
11:30 PM
Tue, Jul 26
45 °FClear.5 mph100%30.33 "Hg10 mi
11:00 PM45 °FClear.2 mph100%30.33 "Hg10 mi
10:30 PM46 °FClear.No wind93%30.33 "Hg10 mi
10:00 PM48 °FClear.6 mph94%30.36 "Hg10 mi
9:30 PM46 °FClear.6 mph93%30.36 "Hg10 mi
9:00 PM48 °FPassing clouds.5 mph94%30.36 "HgN/A
Weather by CustomWeather, © 2016

See weather overviewHow to use our weather pages